Wind_Speed
3 3 3 3 2 2 3 2 2 2 3 4 4 4 4 4 4 4 4 4 4 4 4 5 6 6 7 8 9 9 9 9 6 3 3 3 3 3 2 1 2 4 4 4 5 2 3 6 8 11 5 3 4 3 3 2 3 5 4 4 3 4 4 5 7 7 4 4 6 4 3 7 4 1 2 2 7 4 3 5 3 5 5 1 2 4 9 13
2 2 2 2 1 2 2 2 2 2 2 3 3 4 3 4 4 4 4 4 4 5 5 5 6 6 7 8 9 10 10 8 4 3 4 4 4 4 4 2 3 4 5 5 7 6 4 5 8 9 6 3 3 3 3 2 4 4 3 4 3 6 4 5 7 6 3 3 5 3 3 6 6 4 3 1 1 2 3 3 4 4 3 1 3 6 9 14
1 1 1 1 1 2 3 3 3 2 2 2 3 3 3 3 3 4 4 4 4 5 5 6 6 7 7 8 9 10 10 6 3 3 5 6 6 6 4 3 3 4 5 6 6 6 3 3 4 5 5 3 2 3 4 4 2 3 4 4 4 6 4 4 6 7 5 4 6 3 2 2 3 4 2 3 3 1 3 4 1 2 5 4 2 5 11 14
2 1 1 1 1 2 3 3 3 3 3 3 3 3 3 3 3 3 4 4 4 5 5 5 6 7 7 8 8 9 8 4 1 2 5 8 8 7 4 3 4 5 5 6 5 4 3 1 2 4 4 3 4 4 3 3 1 2 4 3 5 4 2 3 6 6 4 5 6 4 4 2 3 2 2 6 5 3 7 7 7 8 10 9 6 6 12 14
2 2 2 1 1 0 1 1 1 2 2 3 3 3 3 2 3 3 3 4 5 5 5 5 6 6 7 8 8 9 7 4 2 2 7 10 9 6 4 3 4 5 5 6 4 3 3 3 5 6 4 2 5 5 2 3 2 3 1 3 5 5 2 3 4 3 4 5 5 5 5 3 2 1 3 8 6 6 6 7 8 8 11 11 8 9 11 12
4 3 2 2 1 0 1 1 1 1 1 1 2 1 1 2 2 3 3 4 4 5 5 5 6 6 6 6 7 6 4 1 3 3 9 10 8 5 3 3 4 5 5 5 4 3 3 5 6 4 3 3 3 3 1 5 3 3 1 1 3 4 2 2 3 3 5 7 5 5 3 3 3 1 3 7 7 6 4 5 6 6 11 14 11 10 9 9
4 3 3 3 2 1 1 1 1 1 2 2 2 1 1 0 1 2 3 4 5 5 5 5 6 5 5 5 4 4 4 2 4 6 10 9 8 5 2 1 3 4 5 4 5 3 4 7 6 3 4 4 0 1 2 6 4 6 1 1 1 4 4 2 3 3 5 7 6 4 3 3 5 3 1 5 7 3 3 1 5 9 14 15 10 8 8 9
3 3 4 4 3 2 2 2 1 2 2 2 3 2 2 1 1 2 2 4 4 4 5 5 5 5 5 3 2 4 2 4 3 9 11 9 8 5 2 2 3 4 4 6 5 2 3 6 3 3 4 2 2 2 3 4 5 5 2 2 0 1 3 1 3 1 3 4 2 5 4 4 6 4 1 6 6 0 2 5 8 10 11 10 8 7 8 9
4 4 5 5 5 5 4 4 2 1 2 2 3 3 3 2 2 2 2 4 4 4 4 4 5 5 4 2 5 3 3 3 5 11 11 10 8 6 3 2 3 3 4 6 5 3 3 2 2 3 3 2 3 2 3 2 1 1 3 2 0 2 4 2 1 2 1 1 3 5 3 5 2 1 3 6 6 3 4 7 6 8 8 6 6 7 8 8
4 3 4 5 6 6 6 5 4 3 2 2 4 4 4 3 3 3 3 3 4 4 4 3 3 3 2 3 5 1 4 2 6 12 11 10 8 6 4 2 2 2 3 4 5 6 4 4 4 4 5 3 3 1 2 2 1 1 3 1 1 2 5 1 2 4 1 2 3 6 5 4 3 2 4 4 5 5 7 6 4 7 7 6 5 6 9 9
4 3 4 5 5 6 7 7 6 6 4 3 4 4 4 4 3 3 3 4 4 4 3 3 2 1 1 4 5 3 3 1 7 11 11 10 7 6 4 3 3 1 2 4 5 5 5 5 5 4 2 1 1 2 2 1 1 1 3 1 3 5 5 1 2 5 0 2 5 7 4 3 3 1 6 5 5 6 8 7 5 6 6 6 5 5 7 9
4 4 4 5 5 6 7 7 7 8 7 4 3 4 4 5 4 4 3 4 4 4 4 2 0 0 2 3 3 6 4 2 6 10 10 9 7 5 3 2 2 2 1 2 4 4 4 3 6 5 0 2 2 2 1 1 2 1 4 1 6 8 5 3 3 3 3 2 5 6 2 4 4 7 6 3 6 6 7 7 5 6 5 5 5 5 6 9
4 4 5 5 5 6 6 7 8 8 7 5 4 4 4 5 4 4 3 4 4 4 3 2 1 1 3 0 4 7 7 5 6 9 9 8 6 5 3 2 0 2 1 3 4 5 5 2 6 6 2 5 2 1 2 3 3 0 3 2 4 7 6 5 0 2 4 3 4 4 3 6 8 10 5 2 7 7 6 7 6 5 5 5 5 4 5 8
5 5 5 5 6 6 7 7 8 8 7 6 4 4 4 5 4 4 3 4 4 3 2 2 1 2 3 3 4 5 8 7 7 9 9 9 7 5 3 2 1 2 3 5 5 6 5 3 7 7 2 4 1 1 4 6 3 1 1 2 3 2 4 6 1 4 5 2 2 4 3 7 9 9 4 5 8 9 8 8 7 6 5 5 5 5 5 7
7 6 6 6 6 6 7 8 8 9 8 5 4 3 4 4 3 2 2 3 3 3 2 3 3 3 2 4 4 4 7 7 8 9 9 9 7 5 3 2 2 3 4 5 6 7 6 5 6 5 1 2 3 4 4 4 3 3 1 3 3 2 5 8 2 6 5 0 2 4 3 7 8 8 4 5 6 7 9 8 7 7 7 7 6 6 5 6
9 8 7 7 6 7 8 8 8 8 7 4 3 2 2 2 1 1 2 3 4 4 3 3 4 5 2 3 3 3 6 7 7 10 10 9 7 4 4 5 3 4 5 5 5 6 7 7 4 2 1 2 5 5 4 4 4 4 0 3 2 2 3 7 3 3 3 2 0 2 3 4 4 5 3 3 6 6 7 7 8 8 8 7 6 6 6 6
11 10 9 8 7 7 7 6 5 6 4 4 2 1 0 0 1 2 3 6 7 5 5 5 4 4 0 2 2 4 4 6 8 10 11 10 7 5 6 5 3 4 5 5 5 4 7 6 1 0 2 3 3 5 3 2 4 4 1 2 4 3 2 3 4 4 1 3 3 4 4 7 6 4 1 4 6 6 8 9 9 8 7 7 6 6 6 7
12 11 10 9 8 7 6 4 4 3 4 4 2 2 3 3 2 3 7 10 9 7 5 3 4 2 3 3 3 2 3 6 8 10 12 10 7 7 6 4 4 5 5 4 4 3 4 4 2 1 3 3 2 5 3 5 4 3 3 2 3 3 3 4 5 2 3 2 4 4 5 11 13 8 4 6 6 8 10 10 7 7 8 7 7 8 7 8
13 12 11 10 8 7 6 4 3 3 4 3 2 6 6 4 4 4 7 7 5 4 1 3 3 3 4 4 2 3 5 7 9 10 12 10 8 7 5 4 5 6 4 1 1 2 1 3 4 2 1 3 4 7 8 8 7 7 6 5 4 4 4 5 6 5 4 3 5 7 7 11 13 12 8 7 7 8 10 8 6 7 8 8 8 8 9 10
13 13 12 11 9 8 7 5 4 4 4 3 5 7 4 3 3 1 2 2 4 4 2 4 5 3 0 2 2 7 7 6 5 7 11 11 11 9 4 4 6 5 3 3 2 1 3 3 2 4 8 9 9 10 7 5 6 5 5 4 4 4 5 5 5 7 2 4 6 8 9 11 11 13 11 5 6 8 9 9 9 9 8 9 11 11 11 10
14 13 13 12 10 8 8 5 4 4 5 4 6 5 2 4 3 2 3 4 9 8 4 4 2 2 1 1 5 9 6 3 2 4 11 11 12 9 1 2 4 1 2 3 3 1 4 4 7 10 10 8 7 8 5 4 4 3 3 3 3 4 6 7 5 5 0 4 6 5 7 11 12 13 11 4 6 10 12 12 13 13 12 10 11 13 11 7
14 13 13 12 10 9 7 5 4 5 5 5 5 3 2 3 4 1 2 1 9 12 10 5 2 5 4 2 7 6 3 2 1 3 10 10 8 7 2 3 5 4 2 3 4 1 1 3 11 11 4 5 4 5 6 4 3 2 2 2 3 3 4 7 5 3 1 4 5 4 4 9 12 12 11 7 8 11 12 14 15 14 13 12 12 12 10 8
14 13 13 12 11 10 8 6 5 6 8 7 6 4 2 3 5 4 3 1 5 6 6 7 5 5 4 2 7 7 1 4 4 6 11 10 4 5 5 5 6 4 3 5 6 4 3 6 11 7 7 6 3 4 6 3 1 3 3 2 4 3 2 4 5 3 1 2 2 4 4 7 9 9 11 12 11 10 10 12 14 12 13 14 12 11 11 12
15 14 13 13 12 11 9 8 6 8 12 11 12 10 5 6 6 4 2 1 3 4 3 7 6 5 7 5 8 10 3 3 5 6 13 12 5 3 5 6 5 5 5 9 8 7 6 6 4 6 8 8 5 4 7 5 3 5 6 6 5 5 6 6 4 4 3 3 3 3 6 6 8 10 12 8 4 8 9 10 12 12 12 11 9 10 12 13
19 16 14 15 14 13 11 8 8 11 11 10 15 14 10 8 7 5 3 2 3 4 3 4 3 6 11 8 10 10 2 3 5 8 16 15 9 4 3 3 4 5 8 8 6 6 8 4 4 7 6 7 6 4 6 7 4 5 6 10 10 9 8 7 3 5 4 5 3 3 4 6 5 8 11 5 2 8 8 8 14 13 10 10 10 11 11 10
23 20 17 16 15 16 12 7 10 12 9 10 14 14 13 10 8 5 3 3 3 4 1 4 3 8 12 9 9 7 2 5 5 9 17 16 9 5 3 2 2 4 7 5 3 3 4 4 5 7 6 7 6 5 6 8 5 4 5 10 11 9 7 6 3 1 1 5 3 2 2 7 6 7 9 5 5 10 8 8 13 12 9 10 12 11 8 8
27 24 21 19 19 21 14 5 9 11 6 10 12 16 15 11 8 4 3 4 4 3 4 2 1 7 9 9 12 9 2 5 2 8 13 14 9 3 3 5 2 2 4 4 2 3 3 5 4 6 6 6 6 5 6 9 8 4 5 6 9 9 8 7 6 4 4 3 4 3 2 5 8 7 6 5 8 10 10 11 13 13 12 11 11 9 8 10
31 29 26 24 25 27 18 8 11 15 8 5 11 21 17 12 9 3 4 0 4 3 4 1 1 4 3 6 12 8 2 2 5 4 6 11 9 2 2 8 6 6 5 6 5 3 4 7 8 8 5 5 6 5 7 11 6 5 3 5 6 6 5 4 5 4 1 2 5 4 1 4 8 5 3 0 6 8 11 13 15 15 12 10 10 9 9 10
34 32 30 29 27 29 25 15 12 16 14 6 14 23 19 13 7 4 3 3 2 1 2 1 3 2 3 5 8 3 2 1 2 2 2 6 5 2 3 7 6 7 6 5 7 2 2 6 8 8 6 6 5 3 8 12 6 4 5 7 5 5 5 5 4 3 2 2 6 5 3 3 8 4 2 2 3 8 10 12 14 13 9 8 9 10 9 8
34 33 32 32 30 31 28 21 18 16 11 10 18 25 20 9 4 4 2 4 0 0 0 2 2 3 7 8 4 1 2 1 1 1 3 2 1 4 1 3 5 5 2 5 6 3 1 1 2 4 4 5 4 2 3 8 6 5 7 6 7 6 5 4 2 4 1 5 7 8 9 6 7 3 4 3 4 7 9 8 10 9 6 6 8 8 9 8
31 34 35 34 34 34 25 19 28 22 9 12 21 22 14 4 2 5 6 1 1 1 2 1 2 5 12 13 6 3 3 1 1 5 3 1 2 3 0 1 4 3 1 6 5 3 3 1 1 2 2 4 7 5 3 2 5 5 4 5 4 4 4 4 4 4 1 6 5 6 7 8 9 6 3 6 6 5 7 8 10 9 7 6 6 6 8 7
23 31 37 37 35 37 26 19 30 25 12 18 21 12 5 2 2 5 4 1 0 4 5 4 3 6 11 10 6 7 5 2 3 6 6 4 5 6 6 6 5 3 2 7 4 2 2 5 3 2 1 4 6 4 4 4 2 4 4 6 3 2 3 2 3 0 4 7 3 1 1 4 10 8 6 8 9 9 9 9 10 9 7 7 6 6 6 6
17 23 35 39 36 40 35 24 26 24 19 24 17 5 2 5 6 7 7 4 2 2 3 4 3 6 10 7 4 5 4 2 5 4 4 5 5 8 7 5 5 3 2 5 3 1 3 5 1 1 2 3 8 7 3 1 4 6 6 6 5 2 1 3 3 2 4 6 4 2 1 4 6 4 9 13 13 11 8 9 10 8 8 8 6 6 6 6
14 18 32 41 40 41 38 28 26 27 26 22 10 4 6 5 4 7 11 7 1 1 2 3 6 6 8 6 4 6 4 3 6 5 3 6 5 7 6 6 7 3 3 3 3 5 5 6 4 8 4 6 11 9 6 6 5 6 5 6 6 6 5 4 4 4 5 4 4 2 2 4 2 3 8 9 8 7 7 8 7 7 8 7 5 5 6 7
13 15 24 36 38 38 35 29 28 31 28 16 6 5 8 5 3 6 9 7 1 2 3 3 7 7 5 3 2 6 5 3 5 5 4 6 6 7 7 8 11 6 4 4 2 3 5 7 6 4 1 9 12 6 5 7 3 3 3 4 4 6 5 2 2 5 2 2 3 2 4 4 3 6 8 6 6 7 8 8 7 10 9 4 4 5 6 7
12 11 15 27 34 35 33 29 30 34 25 10 6 7 8 8 6 5 7 8 6 5 6 3 4 5 6 3 2 6 3 1 5 5 3 4 4 6 6 7 10 11 8 7 3 2 3 5 5 1 2 4 7 3 4 4 3 2 3 4 4 4 5 2 3 1 3 3 4 2 6 5 3 7 8 6 8 8 8 8 8 11 8 3 6 6 6 7
9 7 9 19 29 35 35 31 34 34 18 7 7 8 6 6 5 4 6 7 6 7 8 4 3 5 6 5 4 7 3 2 4 5 4 3 3 6 7 4 6 14 13 7 2 3 4 4 4 1 2 3 1 3 3 3 3 5 4 6 3 2 2 2 2 3 3 4 5 2 7 6 2 6 4 2 8 11 9 9 10 10 6 6 9 6 6 7
7 4 7 16 27 33 35 36 37 27 10 5 9 9 6 6 5 4 4 5 7 7 8 7 6 7 7 7 6 6 6 4 5 5 4 3 5 7 10 5 5 14 16 8 3 3 4 3 5 1 3 3 3 4 2 5 3 5 4 5 4 2 1 2 2 2 1 3 5 3 5 5 5 6 2 3 10 12 12 11 10 9 8 10 9 5 6 7
7 2 5 13 23 29 34 37 30 15 5 6 10 8 7 9 9 5 4 5 6 8 9 8 7 5 5 7 6 6 8 8 8 7 4 5 5 6 11 9 6 10 14 11 7 3 3 3 4 1 1 1 3 2 5 1 2 3 2 3 2 2 4 4 3 3 3 3 4 3 4 5 6 6 6 10 12 11 12 10 9 11 12 11 6 5 7 7
6 3 3 7 16 28 37 33 17 6 5 7 9 6 3 5 6 5 6 8 5 5 7 9 8 6 6 7 4 5 7 8 8 7 5 6 5 5 8 9 5 5 9 12 9 3 2 4 4 2 2 1 2 4 7 8 6 3 4 5 3 1 2 1 1 2 4 3 2 3 6 8 5 4 8 11 10 10 10 8 9 11 11 7 3 6 7 8
5 5 3 7 19 30 31 19 7 5 6 7 9 7 3 2 3 4 5 4 3 2 3 6 9 7 6 7 5 5 6 6 7 6 4 6 7 5 6 10 9 7 7 8 9 6 4 4 4 2 1 3 5 4 5 8 8 7 7 8 8 6 4 2 3 2 3 2 4 3 7 10 5 4 6 7 6 7 8 9 9 10 8 5 3 7 7 8
4 5 3 12 28 32 20 7 6 6 7 7 7 5 2 1 2 4 3 1 1 1 0 2 7 8 6 7 8 6 6 5 7 7 5 8 11 8 7 10 11 11 10 7 8 6 4 3 3 3 4 6 6 4 3 5 3 3 4 5 7 6 6 6 6 4 3 3 3 4 4 10 4 3 4 4 3 4 5 7 7 8 7 5 5 6 6 7
4 5 3 16 35 31 12 5 7 5 5 5 3 2 2 1 1 3 4 5 4 2 2 2 4 6 5 5 7 8 8 7 8 10 8 8 10 8 6 9 11 10 8 4 3 3 3 3 4 2 2 2 4 4 2 1 2 1 2 3 6 8 8 6 5 4 4 5 5 3 5 9 4 0 3 4 3 3 4 5 7 8 6 4 5 5 6 6
4 5 1 16 36 30 9 5 7 6 6 4 2 3 3 2 3 5 6 8 5 3 4 3 2 4 4 2 3 7 9 7 7 11 9 6 6 5 6 11 12 10 8 5 5 6 4 4 4 3 1 3 4 3 2 2 2 3 4 5 7 10 9 3 0 2 3 9 10 6 9 9 3 3 3 3 4 4 5 5 6 6 6 5 5 4 5 6
3 4 1 10 25 20 7 7 9 8 9 8 6 7 6 3 5 7 8 7 5 4 5 3 3 4 3 3 2 3 7 8 6 6 5 4 4 3 2 10 12 11 9 6 8 8 5 4 6 7 7 8 6 5 5 4 3 2 4 7 9 12 13 7 3 4 7 9 9 9 13 9 2 3 4 3 5 5 6 5 5 7 6 5 4 5 6 6
2 3 2 4 9 9 7 8 9 7 9 11 9 8 11 10 5 6 7 6 6 7 4 1 4 5 4 6 6 5 8 9 4 1 4 6 4 2 1 6 9 10 7 8 11 8 3 4 9 12 12 13 10 5 4 8 7 7 10 12 12 13 14 11 6 8 8 3 6 14 17 13 9 5 4 5 5 5 6 5 6 7 6 5 5 5 6 7
3 3 3 3 3 5 6 6 9 8 9 11 8 6 12 15 9 5 7 8 7 8 5 1 4 6 6 9 9 9 10 9 4 3 6 6 4 3 2 1 4 5 1 5 8 6 4 4 11 15 16 16 11 5 7 11 11 13 14 13 14 14 13 13 13 13 7 4 10 17 11 13 21 13 8 8 5 4 8 9 8 8 6 5 5 5 6 7
4 2 1 1 1 4 5 6 9 12 13 12 8 7 13 16 13 8 7 9 8 8 6 3 5 10 11 12 11 8 9 9 7 9 9 6 3 2 2 1 3 2 2 2 2 4 4 6 9 12 14 18 12 5 7 9 9 11 14 15 17 16 16 18 20 17 10 9 18 16 9 13 24 15 8 8 7 8 13 11 7 6 6 5 5 5 7 8
3 2 2 0 1 2 2 1 4 10 16 14 9 10 13 16 18 13 8 7 7 8 10 9 12 16 15 13 10 8 10 10 10 12 12 7 5 4 2 2 3 2 4 4 2 1 3 5 6 9 11 17 14 6 7 9 6 6 11 14 16 18 21 23 23 20 15 14 21 15 6 14 20 12 7 8 8 10 9 4 2 6 7 6 7 7 8 9
4 2 2 1 0 3 3 1 1 5 10 12 11 12 12 14 18 15 10 11 10 9 13 16 18 18 16 15 12 12 13 13 13 14 12 10 8 6 5 5 3 1 1 3 2 1 3 3 3 6 6 14 12 6 7 9 7 7 8 10 15 18 21 20 18 17 14 14 19 17 13 17 14 4 5 7 7 5 6 5 6 8 8 7 8 8 9 9
8 3 2 1 1 3 2 2 2 3 5 6 8 9 12 15 18 15 12 13 15 13 14 20 22 16 14 16 15 15 17 16 18 16 13 14 11 6 5 5 4 5 4 4 3 2 3 2 1 4 6 12 9 8 8 7 5 6 9 13 18 16 14 14 13 13 14 16 18 15 14 18 11 2 4 6 5 6 9 10 11 9 8 8 9 10 10 10
9 3 4 2 2 4 4 1 3 4 4 4 6 7 8 8 10 12 10 8 12 14 13 19 22 14 10 15 20 22 22 18 16 10 7 8 7 4 4 3 4 6 5 4 2 2 5 4 1 4 7 10 6 9 9 5 3 7 12 18 20 14 9 10 12 14 16 15 13 13 15 19 14 6 7 7 5 9 12 11 11 10 8 8 10 11 11 11
Wind_Direction
184 174 167 157 163 182 172 168 166 166 173 173 174 181 193 200 207 217 230 244 259 274 284 294 308 317 317 317 315 321 328 325 318 264 212 216 223 184 158 99 39 9 9 4 4 13 26 16 360 8 41 72 11 340 8 18 61 56 79 93 127 173 193 181 180 196 174 186 203 215 171 131 166 244 154 55 40 61 45 23 346 353 13 45 110 124 146 157
198 175 159 147 151 150 154 169 167 172 183 176 169 172 179 189 208 223 234 250 263 276 287 297 309 313 313 316 316 326 331 331 331 262 227 205 193 163 139 84 44 27 30 30 24 32 43 343 336 13 42 50 350 343 22 7 60 82 109 96 179 198 198 188 180 192 184 176 182 183 156 147 176 170 141 175 349 51 84 357 349 4 351 46 103 119 146 157
173 130 138 157 160 159 164 168 170 179 177 177 177 175 180 189 206 224 237 251 263 274 288 298 305 309 312 315 321 331 335 347 355 272 220 194 181 157 129 80 46 40 31 25 20 22 37 297 326 35 46 50 357 358 33 13 41 125 108 88 223 213 214 211 185 200 219 172 151 165 164 164 200 162 153 181 167 189 195 207 198 244 230 203 189 126 140 154
161 154 193 212 204 188 182 174 175 175 170 176 180 186 196 202 205 222 240 248 263 273 284 296 299 305 311 316 326 331 346 27 334 251 177 177 169 151 125 78 40 37 25 16 16 13 18 348 49 57 60 43 341 15 44 353 28 99 102 150 208 174 169 209 192 207 208 157 147 140 120 156 228 173 152 146 138 259 244 213 192 201 199 188 201 152 142 151
183 193 207 246 264 198 190 172 169 161 165 167 172 191 200 214 223 230 242 251 263 271 283 292 293 303 312 320 328 332 7 61 263 194 156 167 161 150 121 65 29 26 18 16 16 29 45 54 61 49 54 45 348 28 28 310 65 67 44 196 191 141 137 213 194 192 152 120 108 118 139 171 186 118 150 151 172 231 236 228 213 196 181 174 175 159 145 148
198 203 194 242 289 8 354 37 33 48 107 122 134 163 186 219 239 246 251 260 266 274 286 286 292 304 315 325 331 345 55 106 276 174 166 169 160 156 125 49 21 12 5 21 19 36 49 34 54 51 45 53 9 53 337 310 48 94 331 282 211 181 180 199 175 185 143 112 128 159 179 139 116 282 186 172 208 229 257 252 219 182 162 158 152 153 149 151
215 222 222 240 230 209 318 11 16 22 34 45 52 53 36 267 249 257 261 270 271 279 286 286 298 306 326 340 341 18 85 256 275 179 180 175 167 170 147 360 10 358 354 30 22 50 69 39 64 110 75 67 115 96 343 322 33 90 138 297 222 195 203 195 135 161 141 137 184 172 118 143 173 213 144 210 235 255 325 346 141 138 140 145 143 153 159 161
265 283 283 289 285 278 283 283 314 11 18 14 8 3 347 346 294 273 268 275 278 279 281 288 303 313 339 358 31 24 360 263 226 179 187 182 180 186 198 308 347 348 24 42 25 108 94 49 97 144 81 84 164 105 345 345 26 69 146 239 231 210 254 333 67 108 145 149 166 117 136 210 195 170 162 236 237 132 60 84 110 121 125 139 147 157 160 161
311 317 316 321 313 306 295 282 282 320 342 347 345 343 336 334 312 292 261 271 276 269 276 287 303 323 349 41 85 42 283 252 188 182 188 189 189 195 221 291 335 344 59 50 38 107 109 91 182 174 148 170 119 79 339 32 353 180 145 199 96 338 324 28 115 248 202 180 109 127 220 271 267 208 258 238 198 146 103 96 110 122 128 149 156 166 165 163
303 313 315 316 314 312 308 298 284 280 300 326 329 329 325 317 300 283 248 258 265 257 268 274 296 337 14 62 86 114 275 268 190 184 186 193 193 202 229 277 314 347 79 64 55 78 102 169 182 148 139 128 90 61 343 87 174 170 116 158 113 352 319 91 197 261 290 279 183 172 230 278 327 285 250 242 176 151 116 114 133 136 152 169 165 178 172 173
286 300 304 308 313 312 312 307 295 287 281 298 324 315 311 309 294 280 250 247 254 245 246 257 296 330 31 74 111 197 278 285 196 185 186 195 195 214 234 272 299 2 76 72 72 77 94 161 153 125 120 102 96 26 358 139 124 80 82 296 329 347 308 187 227 265 196 250 191 168 222 278 352 245 231 231 172 156 137 147 167 157 173 177 173 184 179 185
271 282 292 297 307 313 316 309 300 294 283 285 305 300 307 305 288 276 251 241 248 237 231 229 268 223 63 67 158 222 269 288 208 191 189 195 198 218 235 273 305 17 335 78 89 84 79 147 123 97 181 141 123 20 80 134 87 51 58 338 308 356 333 247 234 234 166 201 184 151 271 277 223 221 245 228 157 145 142 164 184 182 190 187 187 185 188 195
257 268 280 285 293 301 310 310 305 295 281 276 286 288 299 301 289 273 246 242 239 226 222 201 204 131 93 48 232 234 253 258 219 200 192 196 200 215 226 234 252 41 38 99 101 80 67 117 116 105 122 110 122 211 100 49 52 360 47 51 314 359 333 277 331 138 158 184 178 152 271 266 240 242 257 173 153 139 155 188 196 197 200 198 199 191 201 201
246 256 268 277 283 288 298 307 304 295 282 274 279 282 295 300 285 260 233 235 228 212 210 160 154 114 103 246 255 251 248 238 221 208 198 200 197 201 207 196 162 78 78 95 92 70 65 88 98 98 97 87 127 110 42 12 22 21 22 41 4 358 284 289 342 136 158 194 135 134 242 264 264 268 258 181 167 158 180 205 201 205 208 205 208 201 212 209
243 249 259 269 275 280 288 297 300 300 297 287 285 289 298 298 274 251 217 217 195 175 172 138 140 115 81 274 274 277 245 229 220 209 199 198 189 186 190 165 144 118 94 87 86 71 68 82 78 75 27 16 59 68 28 356 15 35 332 308 346 182 267 303 283 161 161 268 71 134 229 274 272 278 271 181 177 178 194 210 207 212 212 207 214 207 215 221
243 245 251 258 268 276 281 290 299 302 301 289 286 297 302 291 244 191 187 171 140 135 126 120 125 113 98 272 288 287 238 218 211 202 194 188 184 182 160 145 119 115 105 85 91 76 54 56 57 65 126 44 68 83 46 12 346 360 92 251 271 177 277 318 303 218 176 116 80 191 234 282 278 297 316 167 182 194 210 225 218 218 218 212 215 213 214 219
243 244 248 252 260 271 281 290 298 300 281 255 267 285 328 299 170 151 141 127 117 106 102 121 125 108 160 260 271 275 224 197 198 193 187 180 180 178 153 132 93 103 96 75 81 62 32 39 53 336 50 62 90 96 60 342 288 315 16 242 244 192 210 301 305 289 143 141 219 226 239 255 262 294 314 185 188 194 220 232 223 221 223 220 217 216 217 213
243 244 245 247 255 267 284 293 307 299 242 237 251 138 115 94 104 127 133 124 105 80 75 108 110 102 263 245 208 224 167 173 183 180 180 175 172 171 152 121 107 100 69 42 43 41 18 23 58 52 24 24 87 105 139 225 211 197 199 210 254 238 212 252 285 263 150 175 229 205 241 257 267 275 227 206 194 194 223 232 229 228 223 224 221 219 219 215
246 247 243 244 247 256 267 273 308 290 238 236 162 129 108 81 83 118 138 133 116 107 160 206 155 149 226 238 182 118 119 146 161 170 172 168 164 155 126 95 96 93 80 65 347 20 74 50 62 95 229 228 189 169 192 206 171 165 175 161 194 235 251 235 253 257 183 169 234 213 227 249 260 268 246 214 195 206 233 244 242 235 225 225 223 222 218 217
247 246 245 244 238 242 249 255 297 280 241 213 150 130 115 92 65 42 186 196 209 172 158 217 205 171 160 300 122 116 118 123 139 171 168 165 156 136 91 56 59 61 109 160 200 15 95 116 158 198 217 212 200 197 195 167 136 129 131 145 199 214 262 252 248 284 217 163 242 223 226 247 251 261 258 208 183 220 238 243 243 234 227 225 222 223 219 219
248 245 245 244 234 233 235 240 278 265 236 203 166 144 165 162 127 232 224 253 256 243 239 245 240 263 302 269 163 139 122 89 19 170 168 167 154 144 139 62 93 91 231 167 147 51 84 139 216 224 219 205 192 194 176 129 124 105 128 186 252 216 249 257 239 291 277 173 260 241 227 253 250 255 263 195 174 224 226 226 237 232 228 228 223 225 218 208
246 242 240 240 231 224 223 231 251 244 229 211 195 196 238 178 118 101 144 236 267 248 235 239 311 293 276 230 187 162 83 90 295 214 175 165 157 172 188 107 146 187 209 134 109 72 102 212 235 230 182 111 121 167 167 163 165 142 127 176 261 244 269 279 269 304 152 180 264 271 240 258 257 256 260 232 210 231 225 219 230 228 226 227 222 224 212 195
242 239 233 230 224 213 212 223 232 230 218 209 214 215 207 156 114 77 106 106 290 261 222 214 225 244 245 264 206 185 125 155 185 223 186 162 160 185 151 138 167 152 149 171 154 154 186 244 241 208 123 121 125 124 136 139 195 195 172 177 243 245 254 277 288 324 254 209 273 291 285 271 267 266 258 243 228 241 240 227 235 232 227 230 223 218 208 200
235 234 226 217 210 202 206 217 218 226 221 220 231 217 159 136 133 106 105 55 300 279 232 210 206 199 203 218 189 179 200 189 171 199 186 165 141 160 159 160 152 135 182 195 179 184 213 250 228 144 147 169 157 118 137 153 236 236 205 200 222 226 215 232 283 333 331 333 360 333 305 273 254 254 254 257 240 249 249 236 245 242 234 238 233 221 212 204
229 228 217 204 200 197 201 211 219 223 218 226 234 213 163 141 134 112 94 28 295 289 290 216 201 204 201 185 170 170 173 235 212 190 182 172 152 143 176 162 135 175 202 193 190 229 244 245 110 123 164 173 156 162 171 172 208 269 229 207 216 219 222 240 306 2 351 320 337 13 302 273 260 252 255 283 306 255 245 232 244 246 235 233 233 227 213 201
228 225 211 197 197 196 192 209 227 214 205 231 227 191 164 155 134 122 95 43 283 270 239 186 179 193 191 167 155 140 91 253 228 169 172 178 170 134 150 163 88 195 190 168 195 251 243 214 123 127 155 164 171 208 212 177 167 267 243 206 212 211 218 235 210 110 244 260 291 65 222 271 286 262 252 236 233 253 252 245 251 251 239 227 229 227 207 192
228 224 209 196 197 194 185 200 209 183 186 246 216 175 169 160 145 146 83 28 278 203 143 206 190 170 177 166 153 136 195 238 146 151 169 177 185 100 138 183 124 190 171 122 233 255 175 179 148 129 129 150 179 219 218 171 150 239 249 182 190 197 210 218 185 192 233 262 315 23 125 272 278 264 258 201 207 253 265 260 260 251 239 231 231 225 202 194
232 226 212 201 200 199 196 189 178 177 196 239 180 172 169 159 159 134 87 262 275 132 132 250 156 144 141 158 158 146 234 208 125 184 173 163 183 80 164 203 173 182 175 145 214 265 142 176 186 164 145 171 198 212 182 155 161 244 219 138 154 170 183 167 146 192 296 11 297 302 96 272 269 258 321 61 203 246 261 255 255 251 242 230 228 224 205 197
232 225 218 208 202 204 207 205 189 197 211 187 162 170 162 158 162 75 77 211 263 83 140 117 127 142 78 139 173 153 25 42 134 232 85 143 183 72 176 200 155 173 200 196 215 253 127 194 190 161 166 200 206 214 169 161 188 216 127 97 76 73 82 83 111 138 42 338 245 235 161 254 272 230 126 41 205 232 245 248 253 255 247 225 220 220 207 195
231 225 221 210 200 199 201 213 218 210 208 185 167 163 152 147 135 97 187 217 155 105 137 123 168 168 136 147 189 200 91 32 20 78 53 108 121 41 152 154 101 141 229 283 250 244 314 257 177 155 178 187 145 86 165 165 162 137 104 68 49 35 41 50 53 86 40 271 233 212 190 203 270 259 166 196 205 210 224 246 262 266 265 240 225 215 202 193
235 230 222 208 200 196 190 211 217 207 200 180 163 151 140 101 71 170 200 213 53 162 130 171 189 143 154 162 177 188 145 46 113 143 145 151 101 66 7 110 83 89 327 285 272 293 327 317 241 214 166 124 100 71 23 87 123 113 91 82 69 349 8 22 356 49 232 258 237 221 195 187 240 260 217 238 251 227 216 234 257 267 275 257 234 217 201 192
243 234 223 210 203 199 197 210 208 200 182 164 155 138 123 117 198 209 204 75 19 197 164 181 195 164 168 171 177 176 155 146 178 166 163 159 165 183 200 191 161 121 236 240 250 341 273 234 254 309 191 138 115 89 28 27 90 107 101 112 118 321 352 340 306 108 230 261 282 311 137 204 244 247 233 251 262 247 224 226 245 258 266 254 232 218 201 182
252 236 223 215 207 204 207 212 203 192 172 160 153 129 154 185 203 204 197 181 197 205 146 128 139 157 161 166 189 170 143 177 177 172 172 153 177 210 225 220 184 157 190 198 190 188 269 290 292 159 258 186 154 160 173 180 179 167 149 147 156 160 196 255 269 279 264 272 304 9 143 246 277 261 230 233 241 242 230 229 242 249 253 252 236 209 190 181
256 240 222 214 212 211 210 208 201 186 168 160 151 154 190 208 198 188 204 213 199 42 64 106 115 138 165 180 203 167 157 218 176 152 163 153 174 216 227 233 212 167 96 143 176 181 215 283 209 179 210 187 182 191 171 139 162 187 164 147 168 167 172 210 216 231 259 284 301 297 196 212 223 272 252 240 256 272 256 245 251 256 250 250 243 197 179 188
255 248 225 211 212 214 207 204 201 183 166 159 155 174 196 206 184 194 209 209 186 51 32 66 108 131 195 247 268 186 173 218 177 147 167 174 191 208 200 211 203 172 137 178 217 163 192 264 241 207 177 167 183 201 125 108 141 221 131 124 196 188 168 198 204 183 188 307 293 229 222 221 206 267 271 260 284 284 260 262 270 264 256 238 230 203 184 193
251 259 234 209 210 213 205 199 194 179 168 161 172 188 203 203 190 189 190 182 181 140 108 75 88 132 206 233 252 217 190 124 155 153 200 203 221 215 204 216 197 183 183 183 192 149 170 274 280 345 15 173 186 184 125 137 186 168 141 183 214 174 147 184 268 62 82 266 269 201 242 283 315 279 267 241 257 263 264 275 262 259 269 259 238 217 191 195
244 256 236 209 211 213 205 196 186 177 170 170 190 200 211 216 196 167 177 171 157 134 134 166 180 167 196 205 212 211 190 127 156 173 195 196 240 213 202 240 192 190 201 187 191 200 168 259 286 124 191 260 244 120 76 19 125 129 179 202 166 73 84 123 246 349 44 253 270 218 246 278 284 273 311 127 229 249 260 259 251 262 279 263 248 215 187 198
237 245 243 225 217 212 205 194 182 176 174 184 201 211 207 215 210 175 177 156 136 149 172 197 196 179 185 196 203 190 176 177 178 187 186 186 243 206 181 208 204 198 204 188 207 246 156 230 293 99 187 291 6 114 84 356 61 128 181 182 132 140 218 121 171 226 180 249 282 284 270 267 209 226 278 180 210 231 242 241 249 263 256 247 245 201 184 197
219 236 263 234 218 212 203 190 180 178 194 192 202 214 206 212 216 189 172 176 156 166 191 208 201 189 190 187 179 169 182 190 174 179 190 186 233 213 179 194 212 202 197 180 191 227 129 200 270 326 218 321 26 159 188 227 39 62 108 157 130 151 179 166 163 175 169 220 278 311 308 269 214 199 203 210 212 214 224 233 241 247 246 247 234 186 188 196
193 231 260 212 206 205 196 186 182 200 207 197 204 210 202 211 214 196 189 197 188 170 199 211 197 191 200 189 173 169 192 200 178 183 204 190 215 241 194 186 182 180 182 182 192 182 129 207 239 313 335 156 187 209 190 179 167 149 158 175 190 118 114 164 180 138 137 163 213 270 285 268 237 184 193 207 215 211 210 217 230 239 250 264 220 184 197 198
171 233 232 182 191 189 182 179 195 213 203 210 216 219 230 191 175 201 209 206 209 197 200 204 197 198 190 181 197 194 183 195 189 191 217 203 206 235 209 186 170 146 147 178 202 196 176 193 184 180 220 200 225 242 202 191 186 181 189 192 187 171 141 171 235 200 138 171 184 188 268 269 240 180 198 201 206 219 209 203 227 246 257 275 228 196 203 198
177 232 188 175 182 174 165 185 211 200 211 212 209 213 214 119 132 194 205 172 202 239 9 192 201 207 194 186 201 189 165 187 194 193 221 217 208 218 214 191 171 153 147 171 207 195 148 124 160 195 212 214 240 268 215 205 188 163 200 198 178 177 171 179 215 211 161 215 185 128 264 273 253 167 215 225 203 226 224 205 227 255 258 255 231 205 203 200
210 230 155 174 179 168 157 222 205 202 226 202 186 174 157 133 161 193 204 202 188 161 180 208 202 210 210 188 184 181 181 196 197 199 216 224 219 221 197 172 157 152 156 169 205 182 121 134 190 229 311 311 307 325 344 152 137 160 231 184 168 195 197 183 198 183 164 211 194 143 249 264 293 14 244 269 263 252 254 225 229 261 270 248 227 207 195 196
226 230 175 183 181 171 163 216 201 218 226 201 180 175 169 195 191 190 206 207 191 154 186 212 206 208 210 131 147 188 197 200 206 210 211 213 230 235 177 169 163 163 182 191 174 175 177 177 179 185 281 333 336 320 290 247 186 200 218 192 188 198 190 172 143 141 202 217 189 184 240 242 290 325 258 291 323 293 265 245 228 250 263 247 223 202 191 188
255 234 256 195 186 180 190 206 199 213 213 214 218 193 191 215 198 200 207 201 189 176 192 209 180 174 173 143 134 200 213 215 222 226 221 220 254 301 192 187 184 187 201 182 153 161 176 178 173 186 210 221 220 218 220 197 167 194 209 195 197 194 187 194 201 189 231 223 176 197 238 239 314 324 261 296 327 296 276 275 252 245 252 250 220 195 191 185
265 236 200 198 198 200 211 204 204 214 208 212 219 202 204 214 207 194 199 205 203 191 194 187 152 160 169 178 184 203 222 226 220 213 229 220 228 306 261 206 207 213 203 154 148 152 152 185 192 199 213 220 219 216 158 131 144 202 208 193 198 200 193 196 208 213 220 192 185 221 235 251 265 237 219 265 273 266 280 284 264 253 254 248 222 201 196 192
240 249 198 186 210 218 222 214 208 211 206 205 203 191 203 213 215 192 193 209 204 190 199 194 162 182 185 185 196 206 212 215 197 196 227 223 224 288 302 216 238 258 225 156 163 144 125 199 205 205 220 230 227 201 156 151 168 199 201 194 202 202 192 197 214 217 182 134 239 235 214 243 257 237 210 242 244 253 268 259 254 258 251 234 211 189 195 199
219 264 264 198 192 217 229 229 213 211 212 207 198 196 203 209 211 201 195 209 207 192 198 209 206 209 202 194 201 207 203 205 208 214 222 219 201 233 281 247 232 220 125 168 188 121 151 211 210 204 224 238 232 179 165 180 181 193 197 197 201 198 194 204 216 215 179 186 242 240 170 218 253 250 223 226 213 227 250 251 248 251 238 212 186 187 201 200
208 254 282 299 13 255 259 274 229 221 215 208 204 208 206 206 209 206 190 191 205 200 195 206 216 215 211 205 201 204 203 201 209 214 212 205 189 179 191 234 235 190 141 164 184 150 184 212 202 189 217 241 238 188 169 191 188 200 206 203 202 201 201 208 216 217 206 217 244 253 225 241 259 262 236 214 200 226 256 270 216 224 224 206 192 205 214 206
197 221 228 142 212 260 288 331 261 241 224 212 211 212 208 207 207 205 194 185 191 195 195 208 218 211 207 206 202 211 212 203 212 214 196 191 200 192 195 203 180 110 147 167 175 219 200 197 163 149 203 246 241 190 177 191 189 210 221 215 216 212 208 212 217 218 216 231 248 258 266 264 261 251 245 233 204 232 277 271 238 231 223 210 206 218 224 217
197 158 152 117 264 222 229 252 212 238 246 220 213 214 215 216 209 203 205 199 195 195 192 206 218 214 207 207 207 219 220 212 220 221 194 191 202 188 195 206 155 141 170 172 160 169 178 193 74 123 205 244 227 179 191 192 181 226 239 228 222 215 209 212 215 215 210 220 238 246 254 258 249 183 264 253 193 215 245 243 245 244 221 207 215 224 226 225
198 160 130 143 261 205 185 210 197 215 248 225 213 220 227 235 216 202 210 210 206 209 200 204 215 214 205 208 212 221 224 220 224 222 183 194 207 158 150 174 144 148 161 160 158 162 164 173 160 157 207 245 220 171 179 169 170 239 240 231 223 210 197 208 216 221 214 209 222 229 234 248 252 244 260 258 212 221 235 234 239 243 227 213 220 228 230 231
Height
813 813 813 813 813 813 813 813 813 813 814 814 814 815 815 816 816 816 817 817 817 817 817 817 817 817 816 816 815 814 814 813 812 812 812 812 812 812 812 811 811 810 810 810 809 809 808 808 808 807 806 808 812 813 812 814 815 816 826 834 839 847 844 837 840 840 836 832 832 833 833 833 835 835 835 836 838 842 844 844 845 844 843 843 842 841 841 842
812 812 812 813 813 813 813 813 813 813 814 814 814 814 815 815 815 816 816 817 817 817 817 817 817 817 816 816 815 814 813 812 812 812 811 812 812 812 812 812 811 811 811 810 810 809 810 810 809 808 809 812 815 814 814 816 816 822 833 835 837 842 837 832 834 835 834 830 830 833 834 833 833 833 834 835 840 843 841 843 847 845 844 844 842 842 842 842
812 812 812 813 813 813 812 813 813 813 813 814 814 814 814 814 815 816 816 816 816 817 817 816 817 816 816 816 815 814 813 812 813 812 810 811 812 812 812 812 812 811 811 811 811 810 810 811 809 810 812 815 818 816 816 817 819 826 831 832 836 835 832 833 833 832 831 830 831 832 834 834 833 833 834 835 840 842 839 839 842 842 842 843 843 842 842 842
812 812 812 812 812 812 812 812 813 813 813 813 814 814 814 814 815 815 815 816 816 816 816 816 816 816 816 815 815 815 812 814 814 811 810 811 812 812 812 812 812 812 812 811 811 811 810 810 810 811 814 818 820 819 820 820 821 827 829 830 832 832 831 831 831 831 831 832 831 831 835 834 833 834 834 835 839 840 836 833 833 834 837 841 842 842 842 842
812 812 812 812 812 812 812 812 812 812 813 813 813 814 814 814 815 815 815 816 816 816 816 816 816 816 816 815 816 814 814 821 816 809 811 812 812 813 813 813 812 812 812 812 811 811 810 810 810 813 817 820 821 821 823 824 823 827 831 831 831 832 831 828 830 831 831 832 831 832 834 832 833 833 833 835 834 833 832 831 831 830 833 837 840 841 842 842
811 811 812 812 812 812 812 812 812 812 812 813 813 813 814 814 815 815 815 815 815 816 815 816 815 816 815 815 816 813 818 823 814 809 812 812 812 813 813 813 813 813 812 812 812 811 811 811 813 817 821 823 826 825 824 826 825 827 832 833 832 832 829 827 829 830 831 830 830 832 831 831 833 833 834 834 829 830 831 832 832 832 834 836 838 840 841 842
810 810 811 811 811 812 812 812 812 812 812 813 813 813 813 814 814 815 815 815 815 815 815 815 815 816 815 815 815 815 819 818 811 811 813 812 813 813 813 814 813 813 813 812 812 812 814 814 816 821 823 825 828 827 826 827 825 826 831 831 831 832 829 827 828 829 830 828 829 831 830 832 832 832 837 833 827 831 834 833 833 833 835 837 838 840 841 841
809 810 810 810 811 811 812 812 812 812 813 813 813 813 813 813 814 814 814 815 815 815 815 815 816 815 816 816 816 818 819 815 811 812 812 813 814 813 814 814 813 814 813 813 813 813 815 816 819 823 825 827 828 827 828 827 826 827 830 831 831 831 829 829 830 829 830 829 831 832 831 832 832 834 835 829 828 833 835 834 835 835 836 838 839 840 841 842
809 810 810 810 811 811 811 812 812 812 812 813 813 813 813 813 813 813 814 814 814 815 815 815 816 815 816 816 817 820 817 812 811 812 813 813 814 814 814 814 814 814 813 814 813 813 815 819 821 821 823 828 827 828 829 829 830 829 830 830 830 830 830 831 830 830 831 831 832 832 832 833 835 837 832 826 830 834 836 836 836 837 838 839 840 840 841 841
809 809 809 810 810 811 811 812 812 812 812 812 813 813 813 813 813 813 813 813 814 814 814 815 815 816 816 816 819 822 815 810 812 812 813 813 814 815 815 815 815 814 814 814 814 813 815 817 819 818 821 826 827 830 831 830 831 831 830 830 830 832 832 832 831 831 833 832 832 832 833 834 836 838 829 826 833 835 835 837 838 838 838 840 840 841 841 841
808 809 809 810 810 811 811 812 812 812 812 812 813 813 812 813 812 813 813 813 813 813 814 814 815 816 816 816 820 820 812 811 812 811 813 813 814 815 815 815 815 815 815 814 815 814 815 815 816 818 821 825 827 830 831 830 831 831 831 830 831 832 831 832 832 832 834 833 832 832 833 836 838 836 827 826 834 835 834 837 839 838 839 840 841 841 841 841
808 808 809 809 810 810 811 811 812 812 812 812 813 812 812 813 812 812 812 813 813 813 814 814 815 815 815 817 819 815 811 812 812 812 813 813 814 815 815 816 815 815 815 815 816 815 815 815 815 819 823 825 828 832 831 830 832 831 832 832 832 832 830 831 832 833 834 832 831 833 836 837 836 830 825 829 835 835 836 836 839 839 840 841 841 841 841 841
807 808 808 809 809 810 811 811 811 812 812 812 812 812 813 812 812 812 812 813 813 813 814 814 815 814 816 817 814 811 811 812 812 812 813 813 815 815 815 816 815 816 815 815 816 815 816 815 815 819 822 824 829 831 829 831 832 832 836 837 837 837 833 832 834 834 834 833 831 834 839 833 827 824 826 833 835 835 836 836 838 839 840 841 841 841 841 841
807 808 808 809 809 810 811 811 811 811 811 812 812 812 812 812 812 812 812 813 813 813 814 814 815 815 816 815 810 810 811 811 812 812 813 814 814 815 816 816 816 816 816 815 816 816 816 816 816 819 823 826 828 829 831 835 835 836 840 843 848 847 836 831 836 836 832 834 832 835 841 831 820 821 827 834 834 833 833 834 838 838 839 840 840 841 840 840
807 807 808 809 809 810 810 811 811 811 811 811 811 812 812 812 812 812 813 813 813 814 814 815 815 815 818 815 809 810 810 810 811 812 813 814 814 815 816 816 817 816 816 816 816 817 817 816 818 822 827 827 828 831 836 838 839 842 843 845 854 852 839 831 834 835 830 833 834 835 840 833 821 822 829 835 835 833 831 833 837 837 838 839 839 840 839 839
806 807 808 808 809 809 810 810 811 811 811 811 811 812 812 812 812 812 813 813 814 814 814 815 815 816 819 815 809 809 809 809 810 811 812 813 814 816 816 817 817 817 817 817 817 817 817 818 824 829 829 829 832 835 840 844 844 848 848 846 850 851 846 837 832 835 832 832 835 835 836 830 821 825 833 836 836 835 833 833 835 836 837 838 838 839 838 838
805 806 807 808 809 809 809 810 810 810 810 811 811 812 812 812 812 812 813 813 814 814 814 815 815 816 816 812 810 809 808 808 809 811 812 813 815 816 817 817 818 818 818 818 818 818 819 822 830 832 832 837 839 837 844 852 848 849 853 851 850 851 851 842 832 834 835 834 834 835 837 828 819 825 833 835 836 836 834 831 832 835 836 836 837 837 837 837
804 805 806 807 808 808 809 809 809 810 810 810 811 812 812 812 813 813 813 813 814 815 816 816 816 820 816 809 808 808 806 808 809 810 812 813 815 816 817 818 819 819 819 821 821 822 824 828 833 833 836 841 840 839 846 847 841 842 848 849 849 850 851 846 836 833 834 835 835 837 839 831 822 823 828 832 836 835 831 829 831 833 834 834 835 835 834 834
803 804 805 806 807 808 808 809 809 809 810 810 811 812 812 813 813 813 813 813 813 813 814 812 812 816 813 806 806 806 806 808 809 810 812 814 815 816 818 818 819 820 824 827 826 826 828 831 836 838 838 838 837 836 835 834 834 836 840 842 843 843 845 844 838 834 834 836 836 837 836 830 824 820 821 828 834 833 831 830 830 830 831 831 831 831 831 831
802 803 804 805 807 807 808 809 809 809 810 810 811 812 812 813 814 814 814 813 810 807 808 807 806 807 806 806 806 806 807 809 809 810 812 813 814 817 819 820 822 824 827 829 829 830 831 834 838 835 830 829 832 832 830 834 838 838 841 843 843 843 842 838 835 834 835 836 833 832 834 830 825 819 816 824 832 832 831 831 828 827 827 826 826 826 826 827
801 803 803 805 806 807 808 808 809 809 809 810 811 811 810 810 811 812 812 810 807 805 805 806 806 806 805 806 806 806 807 810 810 811 812 813 814 818 821 822 825 829 832 833 832 832 834 838 836 826 822 826 830 833 834 838 840 840 843 844 846 848 843 835 834 834 836 838 832 830 834 831 826 821 817 823 828 825 824 824 822 821 821 821 820 820 822 824
800 801 802 804 805 807 808 808 809 809 809 810 810 810 809 807 808 808 808 809 805 803 804 806 808 807 806 806 806 806 807 811 812 811 812 813 814 818 821 824 826 830 834 834 834 836 840 840 830 822 826 830 832 836 837 839 841 842 846 847 848 848 844 835 835 837 837 836 832 831 835 830 824 822 818 820 821 815 815 815 812 811 814 814 814 815 818 822
799 799 802 803 804 807 807 808 808 808 809 810 810 809 808 807 807 807 808 810 806 801 802 804 805 806 806 806 805 806 807 809 811 810 811 813 815 818 820 824 827 830 835 832 831 838 841 833 824 823 829 829 832 838 839 841 843 843 845 848 847 847 844 834 834 839 837 836 835 834 837 832 823 820 815 813 814 811 810 810 807 806 806 806 807 810 812 815
796 798 800 801 804 806 807 808 808 807 808 808 808 807 807 807 808 808 808 810 809 802 799 799 800 801 802 802 802 805 807 807 807 807 809 811 815 819 819 822 828 832 834 829 827 831 828 823 823 826 828 827 832 839 840 840 842 843 844 845 842 841 841 836 835 838 836 837 839 836 835 827 817 815 809 805 811 810 806 807 805 803 803 803 804 805 806 808
794 797 798 800 803 804 807 808 806 806 807 807 806 804 807 807 807 808 808 813 812 804 799 798 798 796 795 798 800 802 806 805 802 803 804 807 811 815 818 820 824 831 832 830 831 830 823 822 825 826 829 830 832 837 838 837 840 841 838 837 836 834 836 838 839 840 839 839 841 840 837 822 809 811 809 806 810 806 802 804 799 797 800 802 801 799 801 806
792 795 796 799 802 803 807 806 803 805 806 805 802 803 807 806 808 809 809 819 817 803 800 798 795 791 789 795 798 801 809 804 797 799 802 805 806 809 816 820 821 826 829 831 833 829 823 822 822 823 829 833 833 835 835 835 841 842 834 830 833 834 837 838 839 842 842 841 844 845 842 828 811 805 803 804 806 800 797 800 796 794 796 796 795 795 799 804
790 792 794 797 800 801 803 802 802 804 804 801 798 803 806 804 809 807 810 830 819 793 793 797 793 788 786 791 793 799 809 801 795 799 799 803 805 805 813 819 820 823 825 830 831 825 821 823 824 824 827 833 835 834 832 834 839 838 833 830 831 834 837 838 839 841 841 843 845 844 844 839 822 805 801 801 801 796 794 794 791 789 789 790 791 793 796 800
788 789 791 793 795 798 799 799 799 799 799 798 797 802 803 805 809 805 817 836 811 781 786 792 789 786 787 791 789 794 800 795 795 801 799 801 804 805 811 815 816 818 819 822 824 820 817 819 822 823 826 831 830 824 826 831 833 832 836 838 835 836 838 839 840 842 847 850 845 839 844 844 820 804 808 807 802 798 792 786 781 778 781 786 789 791 793 797
786 787 788 790 793 795 797 797 796 795 796 796 798 801 802 806 807 808 827 830 795 776 783 786 787 788 790 794 793 793 796 795 798 800 800 802 803 805 810 812 813 816 816 815 815 816 817 818 819 819 822 823 821 822 825 826 826 833 840 839 838 841 842 843 843 842 849 852 844 837 842 841 814 794 805 810 804 798 788 781 776 773 776 781 785 788 791 795
783 784 786 789 790 791 794 794 792 793 796 797 798 799 802 806 807 819 837 818 785 781 786 785 788 789 792 797 799 797 796 799 801 801 803 804 804 806 808 809 812 816 818 816 815 817 819 821 821 818 818 818 819 828 832 827 828 834 835 832 836 840 840 845 847 845 849 846 837 831 833 838 822 799 799 800 793 788 781 776 773 770 775 778 781 786 788 792
779 781 782 785 785 787 789 788 787 792 796 797 798 800 803 808 813 824 824 800 783 787 787 788 790 789 790 793 796 798 798 801 802 801 805 807 808 810 810 812 814 819 824 820 818 820 820 820 820 817 819 819 819 827 834 834 834 832 828 829 836 840 842 847 849 850 851 839 829 830 834 840 828 803 793 789 785 785 782 776 768 764 771 777 780 785 787 790
776 778 781 781 781 783 783 780 783 792 796 797 800 800 804 814 818 814 802 787 785 784 779 785 790 789 791 789 791 795 796 800 801 800 803 807 810 809 807 807 810 819 826 821 820 822 819 817 818 818 820 818 815 824 834 837 836 832 829 833 841 850 852 850 852 858 855 840 835 840 840 835 817 793 787 787 782 781 780 777 770 767 771 774 778 784 787 790
774 776 778 778 778 778 778 779 785 792 795 796 798 801 806 812 807 798 791 783 780 778 775 780 785 788 791 790 792 794 794 797 800 801 801 804 809 807 803 803 804 808 813 817 824 825 819 818 819 818 816 813 810 817 827 830 833 831 828 832 840 852 858 854 858 862 850 838 840 847 840 825 804 785 781 779 772 771 774 777 775 774 775 774 777 783 787 790
772 773 774 775 774 774 776 780 784 788 792 794 797 802 806 803 793 788 786 777 774 778 778 780 785 790 790 789 790 790 793 797 799 800 802 805 810 809 805 804 804 804 808 817 823 823 820 814 810 809 808 806 804 805 808 817 828 827 822 825 830 837 842 842 844 842 834 833 841 847 836 812 793 782 778 778 776 775 774 775 777 778 779 779 780 783 786 789
770 771 772 773 772 773 775 779 782 786 789 791 796 802 800 793 788 786 781 775 775 779 781 782 786 792 793 791 790 787 787 793 798 801 803 804 804 803 800 799 801 802 806 812 815 819 821 808 799 802 802 801 802 800 802 811 823 828 825 824 825 824 823 827 837 840 839 839 838 838 825 801 788 780 776 779 779 776 772 772 776 773 774 779 780 781 785 787
769 769 770 770 769 771 773 776 780 784 785 788 795 796 786 776 773 773 768 766 770 774 782 787 787 792 796 793 793 790 785 789 797 801 802 803 800 797 795 790 792 796 795 799 806 812 815 808 804 806 804 804 804 801 804 807 813 824 829 824 825 825 817 822 840 851 853 843 827 821 810 795 790 778 772 778 775 770 771 771 771 768 770 777 776 778 784 786
767 768 768 767 767 768 770 773 777 781 783 786 788 783 774 765 761 761 759 758 762 767 775 783 783 785 791 791 791 790 788 789 795 797 798 803 796 789 791 787 786 789 785 787 795 797 800 802 806 808 804 807 811 806 807 809 810 819 824 820 823 829 824 824 834 843 851 844 824 815 808 797 795 782 772 777 775 769 770 767 766 768 771 772 770 775 783 784
766 767 765 762 763 766 768 771 774 777 779 782 782 776 770 765 758 757 757 755 758 763 768 773 774 775 781 786 786 787 787 787 794 796 794 799 789 776 782 784 781 783 780 782 789 791 794 797 806 814 809 809 812 807 808 814 813 813 814 812 816 823 827 831 834 833 841 843 824 814 812 801 793 782 769 769 768 763 763 763 763 765 764 763 765 774 782 783
765 767 762 756 759 763 766 770 772 774 774 775 778 773 764 760 756 755 757 755 755 762 766 765 765 769 774 777 779 784 784 782 789 793 788 791 784 770 771 774 774 779 780 782 786 788 793 794 801 815 815 810 810 808 809 814 816 815 815 815 814 816 820 824 828 825 828 834 825 814 806 786 774 771 763 760 759 754 755 761 762 759 756 756 762 773 780 781
764 766 758 751 755 759 763 768 770 769 767 765 770 766 757 755 756 755 755 755 754 759 762 759 760 766 769 771 774 777 779 777 782 786 781 781 779 771 769 767 769 777 780 782 783 784 791 793 797 812 819 812 807 804 802 803 808 812 814 817 817 819 821 821 823 823 821 826 827 821 803 772 759 763 756 751 755 754 754 757 756 753 753 757 764 771 776 779
762 763 755 750 753 755 761 767 765 763 761 761 764 763 757 755 756 755 754 754 753 753 755 755 757 760 763 768 770 770 774 776 779 781 777 775 772 767 764 762 764 773 782 787 785 781 787 791 796 808 814 807 799 800 801 798 798 800 802 806 807 810 817 820 823 823 819 818 818 821 805 766 750 759 753 748 753 755 757 756 751 751 754 760 765 769 774 776
759 758 750 749 752 754 761 764 759 757 757 756 757 759 757 755 755 756 755 755 755 754 754 755 756 756 757 760 762 765 770 772 775 777 773 768 765 759 757 758 760 765 773 780 780 775 779 788 793 800 804 802 799 804 809 805 799 799 800 799 800 803 805 809 814 815 816 815 810 821 813 768 747 759 759 753 754 757 763 760 753 752 756 760 764 768 774 775
755 752 748 748 750 752 759 762 757 756 754 750 750 754 756 757 757 757 755 754 755 755 756 756 755 754 754 754 757 762 765 766 768 769 766 763 760 755 754 757 760 764 767 772 774 773 777 784 788 794 799 801 801 803 807 806 803 802 801 799 799 799 796 797 801 801 808 808 804 820 815 769 751 764 765 762 762 761 765 763 757 755 756 760 763 766 773 775
751 748 747 748 748 749 754 755 754 754 752 750 752 754 756 757 756 755 754 753 753 753 755 755 754 753 753 754 757 758 759 761 762 761 759 760 757 754 755 756 758 760 761 762 763 768 776 781 784 792 799 801 804 804 803 803 803 799 796 797 795 793 796 799 799 800 803 795 793 809 799 762 756 767 763 762 763 757 758 762 762 758 753 757 763 766 772 775
751 748 746 746 747 745 744 742 743 746 748 750 753 754 754 755 753 752 751 750 751 751 752 752 751 751 753 756 758 759 757 756 758 759 759 760 757 757 758 758 756 754 753 752 753 760 771 774 777 786 792 791 790 788 785 789 798 796 791 793 792 791 795 796 797 803 799 787 788 793 775 753 755 761 756 756 756 751 751 757 761 759 755 758 764 766 770 773
751 748 745 745 744 741 737 734 735 740 742 745 749 749 750 751 749 749 750 750 749 749 749 750 750 751 754 756 758 760 757 755 758 761 761 759 756 758 761 761 758 754 752 752 752 759 768 768 767 770 772 768 763 764 767 773 786 789 784 786 789 789 790 791 794 796 789 787 788 776 760 755 754 753 753 752 751 751 751 751 753 753 755 759 763 765 768 770
750 745 741 741 739 737 736 734 734 735 735 737 739 740 743 746 745 748 750 747 745 747 749 749 749 750 752 753 755 757 755 756 758 759 759 758 756 759 763 763 761 758 756 755 753 758 765 765 763 762 760 755 752 759 766 766 771 776 777 782 785 786 789 791 789 781 777 787 782 759 758 764 749 743 750 750 750 753 750 746 746 748 750 754 758 763 765 767
746 741 737 738 737 734 733 732 732 731 730 732 733 731 735 742 743 745 746 744 743 745 748 750 749 747 745 745 749 752 753 756 759 756 756 757 757 759 761 761 761 760 760 760 759 759 761 759 758 760 760 754 752 761 766 763 764 768 771 775 778 782 787 784 778 771 771 778 765 748 758 762 741 736 747 748 748 748 743 741 745 746 748 751 755 759 760 764
742 741 739 739 739 736 734 733 732 731 727 728 731 728 729 734 737 737 738 742 745 743 744 747 744 741 740 741 745 749 750 753 755 752 750 753 755 756 757 757 759 761 761 761 763 763 760 756 756 760 762 756 754 762 765 763 765 767 768 770 771 774 776 772 769 768 768 767 756 750 761 757 737 734 742 743 743 742 740 743 746 745 745 747 751 752 754 759
738 738 737 739 740 737 736 736 737 735 729 727 727 724 723 726 729 729 730 734 739 740 739 738 735 734 737 739 741 742 740 740 742 741 741 747 751 752 751 748 751 762 766 762 763 765 761 759 758 761 764 758 755 761 765 764 764 764 766 768 767 766 768 767 767 767 770 770 760 758 766 754 733 731 737 739 741 742 742 743 743 743 744 745 747 748 749 753
732 733 733 737 739 734 733 735 737 737 733 730 726 720 718 718 719 722 724 722 724 728 730 730 729 729 734 738 739 737 732 731 731 729 731 736 738 739 743 742 744 756 765 764 762 763 762 763 763 763 765 758 753 759 764 765 768 769 766 762 759 761 764 766 765 763 765 767 764 767 766 745 728 731 737 737 740 741 740 739 738 739 742 744 744 743 744 747
730 731 732 736 736 731 730 732 735 735 730 726 725 722 719 717 715 718 723 721 719 720 722 723 723 727 732 736 734 727 722 723 725 726 729 731 731 734 740 744 745 751 760 764 764 762 761 763 764 765 763 756 753 756 762 768 773 769 755 743 743 754 761 761 759 757 756 759 761 761 749 730 725 734 737 737 739 739 735 734 734 734 738 743 742 740 739 740